Regional Weather Roundup
Issued by NWS

Home | Current Version | Previous Version | Graphics & Text | Print | Product List | Glossary On
Versions: 1 2 3 4 5 6 7 8 9 10 11 12 13 14 15 16 17 18 19 20 21 22 23 24 25 26 27 28 29 30 31 32 33 34 35 36 37 38 39 40 41 42 43 44 45 46 47 48 49 50
000
ASUS45 KBOU 281507
RWRCO

WEATHER ROUNDUP FOR COLORADO
NATIONAL WEATHER SERVICE DENVER/BOULDER CO
800 AM MST SUN DEC 28 2014

NOTE: "FAIR" INDICATES FEW OR NO CLOUDS BELOW 12000 FEET WITH NO
SIGNIFICANT WEATHER AND/OR OBSTRUCTIONS TO VISIBILITY.

COZ001>005-013-030-031-281600-
...NORTHWEST COLORADO...

CITY           SKY/WX    TMP DP  RH WIND       PRES   REMARKS
CRAIG          CLOUDY    15   8  73 E9        30.05S WCI   3
HAYDEN         CLOUDY     9   3  78 E10       30.04S WCI  -6
MEEKER         CLOUDY    19   8  62 N6        30.05F WCI  11
MOUNT WERNER   NOT AVBL
STEAMBOAT SPGS CLOUDY     5   1  86 CALM      30.04S
WALDEN         CLOUDY    14   5  67 SE10G16   29.92R WCI   1
$$

COZ006>008-011-281600-
...WEST CENTRAL VALLEYS...

CITY           SKY/WX    TMP DP  RH WIND       PRES   REMARKS
GRAND JUNCTION CLOUDY    19  11  70 SE8       30.17F WCI   9
MONTROSE       CLOUDY    17  10  74 N6        30.18R WCI   9
EAGLE          LGT SNOW  10   7  85 CALM      30.13S FOG
RIFLE          LGT SNOW  14  10  84 S6        30.17F VSB 3/4 WCI   5
DELTA          CLOUDY    19  11  72 W3        30.18S
NUCLA          CLOUDY    16  10  79 CALM      30.19F
$$

COZ017>023-064>068-281600-
...SOUTHWEST COLORADO...

CITY           SKY/WX    TMP DP  RH WIND       PRES   REMARKS
DURANGO        CLOUDY     6   3  87 CALM      30.16S
CORTEZ         CLEAR     11   7  84 CALM      30.19R
PAGOSA SPRINGS PTCLDY   N/A N/A N/A CALM      30.12R
TELLURIDE      CLOUDY    17   2  50 CALM      30.04S
WOLF CREEK PAS   N/A    N/A N/A N/A MISG      29.95F
$$

COZ009-010-012-014-032>034-037-058>063-281600-
...CENTRAL COLORADO...

CITY           SKY/WX    TMP DP  RH WIND       PRES   REMARKS
ASPEN          LGT SNOW   8   3  80 NW6       30.03S WCI  -2
BUENA VISTA    PTCLDY    22   6  50 W22G31    29.94F WCI   6
COPPER MTN     SNOW       5   0  78 W15       29.88R VSB 1/2 WCI -13
BERTHOUD PASS  NOT AVBL
COTTONWOOD PAS LGT SNOW  19   5  53 W30G48    29.88R WCI   0
GUNNISON       CLOUDY   -11 N/A N/A CALM      30.16F
KREMMLING      LGT SNOW   3   0  85 CALM      30.06S VSB 1
LEADVILLE      LGT SNOW   9   5  84 N6        29.91S FOG     WCI  -1
MONARCH PASS   MOCLDY     3  -4  72 MISG      30.01R
SALIDA         PTCLDY    26   6  42 SW14G26   30.03S WCI  14
SUNLIGHT       HVY SNOW N/A N/A N/A SW3       29.95R VSB 1/4
WILKERSON PASS PTCLDY    10   0  61 NW15G29   29.85S WCI  -6
$$

COZ069>075-281600-
...SAN LUIS VALLEY/SANGRE DE CRISTO MOUNTAINS...

CITY           SKY/WX    TMP DP  RH WIND       PRES   REMARKS
ALAMOSA        MOCLDY    -8 -12  83 CALM      30.10F
LA VETA PASS   NOT AVBL
SAGUACHE       PTCLDY    -2  -9  71 CALM      30.10R
$$

COZ035-036-038>040-281600-
...NORTHERN COLORADO FRONT RANGE...

CITY           SKY/WX    TMP DP  RH WIND       PRES   REMARKS
DENVER INTL AP PTCLDY     9   4  80 S12       29.91S WCI  -6
DMNS CITY PARK   N/A     11   8  87 MISG      29.93R
AURORA         PTCLDY    13   3  63 W2        29.91S
FRONT RANGE AP MOCLDY    16  10  79 CALM      29.91S
ERIE MUNI ARPT   N/A    N/A N/A N/A MISG      29.93S
BOULDER MUN AP PTCLDY    12  10  92 SW5       29.91S WCI   4
CENTENNIAL     PTCLDY    17   2  51 VRB5      29.90R WCI  10
BROOMFIELD     PTCLDY    12   7  79 S8        29.91R WCI   1
FORT COLLINS   MOCLDY     9   3  78 SE6       29.92F WCI  -1
LONGMONT       MOCLDY     5   1  81 SW5       29.95S WCI  -4
$$

COZ041-046-047-076>085-087-088-281600-
...PIKES PEAK/PALMER DIVIDE AND SOUTHERN FOOTHILLS...

CITY           SKY/WX    TMP DP  RH WIND       PRES   REMARKS
COLO. SPRINGS  PTCLDY    16   2  54 NW3       29.88F
A. F. ACADEMY  PTCLDY    17  -1  44 N5        29.87S WCI  10
ELLICOTT       NOT AVBL
FALCON         PTCLDY    26   3  37 W13       29.87S WCI  15
FORT CARSON    PTCLDY    13   6  74 N6        29.88F WCI   4
LIMON          MOCLDY     9   5  84 N7        29.92S WCI  -2
MONUMENT HILL  PTCLDY    18   0  45 W7        29.86S WCI   8
TRINIDAD       MOCLDY    15   6  67 W9        29.93S WCI   3
$$

COZ042>045-048>051-090-091-281600-
...NORTHEAST COLORADO...

CITY           SKY/WX    TMP DP  RH WIND       PRES   REMARKS
GREELEY ARPT   CLOUDY     3  -4  72 S3        29.93F
AKRON          CLOUDY    16  11  80 SW5       29.94S WCI   9
BURLINGTON     PTCLDY     9   4  80 W8        29.98R WCI  -3
WRAY           MOCLDY     8   4  84 SW5       30.01S WCI   0
STERLING       CLOUDY     9   5  85 W3        29.98S
HOLYOKE        PTCLDY    10   3  72 W7        30.00S WCI   0
FORT MORGAN    CLOUDY     5   2  86 W6        29.95F WCI  -5
$$

COZ086-089-092>099-281600-
...SOUTHEAST COLORADO...

CITY           SKY/WX    TMP DP  RH WIND       PRES   REMARKS
PUEBLO         PTCLDY    10   6  84 CALM      29.95F
LA JUNTA       MOCLDY    14  10  84 W5        29.98F WCI   6
LAMAR          PTCLDY     8   5  87 SW3       30.00F
SPRINGFIELD      N/A     19  12  74 NW3       29.97F
$$



USA.gov is the U.S. government's official web portal to all federal, state and local government web resources and services.